This demonstration page uses our WeatherBlox Daily Observations layout. Learn more.

Left ArrowRight Arrow

40.92501, -98.34201

Hourly Observations for August 3, 2020

Temp ( °F °C ) Dew Point ( °F °C ) Humidity (%) Winds ( mph kmh ) Pressure ( in mb ) Visibility ( mi km ) Precip ( " mm )
12:53 am 00:53 Clear 62 16.7 55 12.8 78 78 Calm 30.16 1021 10 16 0.00 0.00
1:53 am 01:53 Clear 60 15.6 55 12.8 84 84 Calm 30.16 1021 10 16 0.00 0.00
2:53 am 02:53 Clear 59 15 54 12.2 83 83 Calm 30.16 1021 10 16 0.00 0.00
3:53 am 03:53 Clear 57 13.9 53 11.7 87 87 Calm 30.15 1021 10 16 0.00 0.00
4:53 am 04:53 Clear 56 13.3 52 11.1 87 87 WNW 3 6 30.15 1021 10 16 0.00 0.00
5:53 am 05:53 Clear 56 13.3 52 11.1 87 87 Calm 30.16 1021 10 16 0.00 0.00
6:53 am 06:53 Sunny 56 13.3 52 11.1 87 87 Calm 30.16 1021 8 13 0.00 0.00
7:53 am 07:53 Sunny 59 15 55 12.8 87 87 Calm 30.18 1022 9 14 0.00 0.00
8:53 am 08:53 Mostly Sunny 64 17.8 58 14.4 81 81 N 3 6 30.19 1022 10 16 0.00 0.00
9:53 am 09:53 Sunny 68 20 58 14.4 70 70 NE 3 6 30.19 1022 10 16 0.00 0.00
10:53 am 10:53 Sunny 70 21.1 57 13.9 64 64 Calm 30.20 1023 10 16 0.00 0.00
11:53 am 11:53 Sunny 74 23.3 57 13.9 56 56 VRB 3 6 30.19 1022 10 16 0.00 0.00
12:53 pm 12:53 Sunny 75 23.9 55 12.8 50 50 Calm 30.17 1022 10 16 0.00 0.00
1:53 pm 13:53 Mostly Cloudy 77 25 54 12.2 45 45 VRB 3 6 30.16 1021 10 16 0.00 0.00
2:53 pm 14:53 Mostly Sunny 76 24.4 51 10.6 42 42 E 7 11 30.14 1021 10 16 0.00 0.00
3:53 pm 15:53 Mostly Cloudy 76 24.4 54 12.2 47 47 ESE 7 11 30.13 1020 10 16 0.00 0.00
4:53 pm 16:53 Mostly Cloudy 75 23.9 56 13.3 52 52 E 7 11 30.12 1020 10 16 0.00 0.00
5:53 pm 17:53 Sunny 76 24.4 56 13.3 50 50 E 9 15 30.11 1020 10 16 0.00 0.00
6:53 pm 18:53 Sunny 74 23.3 57 13.9 56 56 E 13 20 30.11 1020 10 16 0.00 0.00
7:53 pm 19:53 Sunny 72 22.2 57 13.9 59 59 ESE 9 15 30.11 1020 10 16 0.00 0.00
8:53 pm 20:53 Clear 67 19.4 57 13.9 71 71 ESE 7 11 30.11 1020 10 16 0.00 0.00
9:53 pm 21:53 Partly Cloudy 65 18.3 57 13.9 76 76 ESE 5 7 30.14 1021 10 16 0.00 0.00
10:53 pm 22:53 Cloudy 65 18.3 57 13.9 76 76 SE 7 11 30.17 1022 10 16 0.00 0.00
11:53 pm 23:53 Clear 63 17.2 56 13.3 78 78 SE 7 11 30.16 1021 10 16 0.00 0.00

Powered by AerisWeather